[[{"header":{"parameterUnit":"m.s-1","parameterCategory":1,"la1":30.2991,"la2":30.254,"lo1":-89.0895,"lo2":-89.0444,"dy":0.0017,"dx":0.0017,"nx":28,"ny":28,"refTime":"2025-08-25T09:00:00:Z","depth":0,"parameterNumber":2,"parameterNumberName":"U-component_of_WINDS"},"data":[0,0,0,0,0,0,0,0,0,0,0,0,0,0,0,0,0,0,0,0,0,0,0,0,0,0,0,0,0,0,0,0,0,0,0,0,0,0,0,0,0,0,0,0,0,0,0,0,0,0,0,0,0,0,0,0,0,0,-1.9224,-1.9223,0,-1.9195,-1.9195,-1.9194,-1.9116,-1.9114,-1.9112,-1.9111,-1.9084,-1.9085,-1.9086,0,0,0,0,0,0,0,0,0,0,0,0,0,-1.9213,-1.9214,-1.9224,-1.9223,-1.9223,-1.9195,-1.9195,-1.9194,-1.9116,-1.9114,-1.9112,-1.911,-1.9084,-1.9085,-1.9086,0,0,0,0,0,0,0,0,0,0,0,0,0,-1.9205,-1.9214,-1.9224,-1.918,-1.9176,-1.9195,-1.9195,-1.9194,-1.9117,-1.9114,-1.9111,-1.9109,-1.9084,-1.9085,-1.9086,-1.9146,0,0,-1.909,-1.9091,0,0,0,0,0,0,0,0,-1.9205,-1.9205,-1.9187,-1.9183,-1.9179,-1.9156,-1.9181,-1.9178,-1.9117,-1.9139,-1.9111,-1.9108,-1.911,-1.9109,-1.911,-1.9144,-1.9143,-1.909,-1.9091,-1.9092,-1.9092,0,0,0,0,0,0,0,-1.9206,-1.9206,-1.9212,-1.9187,-1.9182,-1.9164,-1.916,-1.918,-1.914,-1.9137,-1.9131,-1.9129,-1.9108,-1.9109,-1.9109,-1.9143,-1.909,-1.9091,-1.9092,-1.9093,-1.9225,-1.9228,0,0,0,0,0,0,-1.9213,-1.9207,-1.9213,-1.9212,-1.9186,-1.9166,-1.9161,-1.9166,-1.9139,-1.9133,-1.9131,-1.9125,-1.9108,-1.9107,-1.9107,-1.9175,-1.9092,-1.9093,-1.9094,-1.9223,-1.9226,-1.9229,0,0,0,0,0,0,-1.9213,-1.9214,-1.9214,-1.9208,-1.9206,-1.9169,-1.9175,-1.9167,-1.9168,-1.9135,-1.9127,-1.9139,-1.9106,-1.9105,-1.9137,-1.9173,-1.9094,-1.9095,-1.9219,-1.9224,-1.9227,-1.9311,0,0,0,0,0,0,-1.9213,-1.9214,-1.9236,-1.9209,-1.9207,-1.9243,-1.9177,-1.9168,-1.917,-1.9162,-1.914,-1.9134,-1.9104,-1.9135,-1.9138,-1.9173,-1.9096,-1.9216,-1.9221,-1.9226,-1.9305,-1.9318,-1.9328,0,0,0,0,0,-1.9213,-1.9261,-1.9237,-1.9238,-1.9233,-1.9246,-1.9245,-1.9208,-1.9173,-1.9195,-1.9174,-1.9135,-1.9169,-1.9139,-1.9141,-1.9178,-1.9214,-1.922,-1.9226,-1.93,-1.9315,-1.9328,0,0,0,0,0,0,-1.9293,-1.9256,-1.923,-1.927,-1.9262,-1.9232,-1.9258,-1.9225,-1.9226,-1.9219,-1.9174,-1.917,-1.9207,-1.9196,-1.9163,-1.9234,-1.9185,-1.9192,-1.924,-1.9255,-1.9266,-1.9268,-1.9097,0,0,0,0,0,-1.9316,-1.9328,-1.9296,-1.9335,-1.9332,-1.9296,-1.93,-1.9273,-1.9262,-1.9258,-1.9239,-1.9232,-1.924,-1.9247,-1.9253,-1.9303,-1.9298,-1.933,-1.9342,-1.9351,-1.9358,-1.9384,-1.9398,-1.9249,-1.9249,-1.9249,0,0,-1.9362,-1.9344,-1.9354,-1.9351,-1.934,-1.9356,-1.9293,-1.9312,-1.9323,-1.9261,-1.9289,-1.9275,-1.9264,-1.9305,-1.9322,-1.9296,-1.9398,-1.9359,-1.9367,-1.9368,-1.9392,-1.9406,-1.9418,-1.9253,-1.9253,-1.9252,0,0,-1.9454,-1.9442,-1.9473,-1.9464,-1.945,-1.9426,-1.9434,-1.941,-1.9398,-1.9425,-1.9379,-1.9393,-1.9409,-1.9402,-1.9401,-1.9493,-1.9458,-1.9497,-1.9558,-1.9584,-1.9595,-1.9606,-1.9638,-1.9651,-1.9503,-1.9504,-1.9504,0,-1.9514,-1.9534,-1.9493,-1.9515,-1.9515,-1.946,-1.9491,-1.9485,-1.9475,-1.9476,-1.9448,-1.9467,-1.9455,-1.9494,-1.9517,-1.9518,-1.9526,-1.9498,-1.9597,-1.9607,-1.9616,-1.9646,-1.9659,-1.9508,-1.9508,-1.9507,-1.9507,0,-1.9608,-1.9623,-1.965,-1.964,-1.9643,-1.967,-1.9635,-1.9643,-1.9616,-1.9596,-1.9625,-1.9609,-1.9611,-1.9619,-1.9593,-1.9655,-1.9639,-1.9605,-1.9554,-1.9635,-1.9663,-1.9675,-1.9515,-1.9513,-1.9512,-1.9511,0,0,-1.9749,-1.9717,-1.9727,-1.9722,-1.9703,-1.9714,-1.974,-1.9741,-1.9749,-1.9744,-1.9764,-1.978,-1.9748,-1.9747,-1.972,-1.9743,-1.9817,-1.9705,-1.9704,-1.9726,-1.9885,-1.991,-1.9925,-1.9794,-1.9796,-1.9798,-1.9886,0,-1.9836,-1.9875,-1.984,-1.9886,-1.99,-1.9849,-1.9871,-1.9862,-1.9844,-1.9854,-1.9835,-1.9846,-1.9803,-1.9802,-1.9823,-1.9804,-1.9848,-1.9797,-1.9813,-1.9814,-1.9816,-1.9939,-1.9966,-2.005,-1.9896,-1.9898,-1.9899,0,-1.9941,-1.9941,-1.9988,-1.9967,-1.9971,-1.9991,-1.999,-2.0,-1.999,-1.9976,-1.9975,-1.9942,-1.9966,-1.9918,-1.9951,-1.9917,-1.9922,-1.9913,-1.9916,-1.9915,-1.9861,-1.9941,-2.0075,-2.0088,-1.9916,-1.9915,-1.9914,0,-2.0039,-2.005,-2.008,-2.0078,-2.0053,-2.0069,-2.006,-2.0047,-2.005,-2.005,-2.0052,-2.0056,-2.0057,-2.0061,-2.003,-1.9998,-2.0068,-2.0016,-2.0057,-2.0058,-2.0073,-2.0072,-2.0209,-2.0077,-2.0077,-2.0077,-2.0077,0,-2.0139,-2.017,-2.0123,-2.0142,-2.0176,-2.0136,-2.0171,-2.0157,-2.0146,-2.0162,-2.0119,-2.0135,-2.0093,-2.0105,-2.0081,-2.0112,-2.0114,-2.0103,-2.0096,-2.0107,-2.0108,-2.0108,-2.0102,-2.008,-2.0079,-2.0079,-2.0078,0,-2.0253,-2.0223,-2.0252,-2.0227,-2.0222,-2.0248,-2.0227,-2.0243,-2.0223,-2.0244,-2.0246,-2.0215,-2.0227,-2.0197,-2.0204,-2.0188,-2.0233,-2.0217,-2.0236,-2.0231,-2.0273,-2.027,-2.0415,-2.0432,-2.029,-2.0292,-2.0293,0,-2.0318,-2.0341,-2.0319,-2.0325,-2.0318,-2.033,-2.0334,-2.0297,-2.0302,-2.0293,-2.0311,-2.0319,-2.0323,-2.0345,-2.0324,-2.033,-2.0313,-2.0364,-2.0314,-2.0324,-2.0314,-2.0312,-2.0315,-2.0374,-2.0376,-2.0377,-2.0378,0,-2.0438,-2.0422,-2.0428,-2.0429,-2.0435,-2.0434,-2.0431,-2.0439,-2.04,-2.0408,-2.0419,-2.0423,-2.0431,-2.044,-2.0441,-2.0432,-2.0399,-2.0394,-2.0404,-2.0414,-2.0424,-2.0419,-2.0264,-2.0391,-2.039,-2.0389,-2.0388,-2.0387,-2.0529,-2.0547,-2.0534,-2.0543,-2.0536,-2.0534,-2.0549,-2.0531,-2.0539,-2.0542,-2.052,-2.0536,-2.0526,-2.0524,-2.052,-2.0533,-2.051,-2.0524,-2.0527,-2.0531,-2.0538,-2.0423,-2.0533,-2.0532,-2.0532,-2.0532,-2.0531,0,-2.0646,-2.0635,-2.0643,-2.064,-2.0647,-2.0615,-2.061,-2.0618,-2.0633,-2.0626,-2.0631,-2.0645,-2.0654,-2.0634,-2.064,-2.0654,-2.0639,-2.0657,-2.0655,-2.0654,-2.0558,-2.0549,-2.0669,-2.0669,-2.0669,-2.0669,-2.0669,-2.0669,-2.0707,-2.0736,-2.0719,-2.0745,-2.0734,-2.0749,-2.0749,-2.0747,-2.0742,-2.0759,-2.0766,-2.0752,-2.0741,-2.0746,-2.0753,-2.0746,-2.0751,-2.0774,-2.0763,-2.0674,-2.066,-2.0647,-2.0638,-2.0775,-2.0775,-2.0857,-2.0858,-2.0858]},{"header":{"parameterUnit":"m.s-1","parameterCategory":1,"la1":30.2991,"la2":30.254,"lo1":-89.0895,"lo2":-89.0444,"dy":0.0017,"dx":0.0017,"nx":28,"ny":28,"refTime":"2025-08-25T09:00:00:Z","depth":0,"parameterNumber":3,"parameterNumberName":"V-component_of_WINDS"},"data":[0,0,0,0,0,0,0,0,0,0,0,0,0,0,0,0,0,0,0,0,0,0,0,0,0,0,0,0,0,0,0,0,0,0,0,0,0,0,0,0,0,0,0,0,0,0,0,0,0,0,0,0,0,0,0,0,0,0,2.4318,2.4318,0,2.4337,2.4338,2.4338,2.4374,2.4374,2.4375,2.4376,2.4393,2.4392,2.4392,0,0,0,0,0,0,0,0,0,0,0,0,0,2.4308,2.4308,2.4318,2.4318,2.4318,2.4337,2.4338,2.4338,2.4374,2.4374,2.4375,2.4376,2.4393,2.4392,2.4392,0,0,0,0,0,0,0,0,0,0,0,0,0,2.4318,2.4308,2.4318,2.4338,2.434,2.4337,2.4338,2.4338,2.4373,2.4375,2.4376,2.4377,2.4393,2.4392,2.4392,2.4369,0,0,2.4391,2.4391,0,0,0,0,0,0,0,0,2.4318,2.4319,2.4335,2.4337,2.4339,2.4354,2.4341,2.4348,2.4373,2.4361,2.4376,2.4377,2.4379,2.438,2.4381,2.437,2.4371,2.4391,2.4391,2.4391,2.4391,0,0,0,0,0,0,0,2.4317,2.4318,2.4325,2.4335,2.4338,2.4346,2.4348,2.4342,2.4363,2.4362,2.4365,2.4367,2.438,2.4381,2.4382,2.4371,2.4391,2.4391,2.4391,2.4391,2.4342,2.4341,0,0,0,0,0,0,2.4314,2.4317,2.4325,2.4326,2.4331,2.4345,2.4348,2.4348,2.4364,2.4367,2.4366,2.4368,2.4381,2.4382,2.4382,2.4356,2.4391,2.439,2.439,2.4343,2.4342,2.4341,0,0,0,0,0,0,2.4313,2.4314,2.4324,2.4322,2.4324,2.4344,2.4344,2.4348,2.4349,2.4367,2.437,2.4363,2.4382,2.4383,2.4372,2.4357,2.439,2.439,2.4345,2.4343,2.4341,2.4304,0,0,0,0,0,0,2.4313,2.4314,2.4306,2.4322,2.4324,2.4314,2.4343,2.4348,2.4349,2.4353,2.4365,2.4368,2.4383,2.4373,2.4372,2.4358,2.439,2.4346,2.4344,2.4342,2.4307,2.4301,2.4297,0,0,0,0,0,2.4313,2.4294,2.4305,2.4306,2.4315,2.4313,2.4315,2.4333,2.4348,2.4339,2.4351,2.4368,2.436,2.4371,2.4371,2.4356,2.4347,2.4345,2.4342,2.4309,2.4302,2.4297,0,0,0,0,0,0,2.4273,2.4296,2.4309,2.4295,2.4302,2.4319,2.4309,2.4325,2.4327,2.433,2.4352,2.4355,2.4341,2.4348,2.4361,2.4335,2.4356,2.4353,2.4331,2.4325,2.432,2.4318,2.439,0,0,0,0,0,2.4264,2.4262,2.4281,2.4267,2.427,2.4289,2.4289,2.4303,2.4311,2.4313,2.4324,2.433,2.4329,2.4327,2.4327,2.4309,2.4311,2.4298,2.4293,2.4289,2.4286,2.4276,2.427,2.4333,2.4333,2.4333,0,0,2.4242,2.4254,2.4251,2.4259,2.4266,2.4263,2.4291,2.4286,2.4284,2.4312,2.4303,2.4311,2.432,2.4305,2.4299,2.431,2.427,2.4286,2.4282,2.4282,2.4273,2.4267,2.4262,2.4331,2.4331,2.4332,0,0,2.4202,2.4211,2.42,2.4207,2.4218,2.4232,2.4229,2.4244,2.4251,2.4243,2.4265,2.4261,2.4259,2.4264,2.4266,2.4229,2.4244,2.4228,2.4202,2.4192,2.4187,2.4183,2.4169,2.4164,2.4226,2.4226,2.4226,0,2.4173,2.417,2.4192,2.4186,2.4189,2.4216,2.4205,2.4211,2.422,2.4221,2.4234,2.4232,2.4239,2.4226,2.4217,2.4219,2.4215,2.4226,2.4186,2.4182,2.4179,2.4166,2.416,2.4224,2.4224,2.4224,2.4224,0,2.4134,2.4132,2.4122,2.4132,2.4134,2.4125,2.4145,2.4144,2.4158,2.4169,2.4161,2.4171,2.4174,2.4172,2.4185,2.4161,2.4167,2.4183,2.4204,2.417,2.4158,2.4153,2.4221,2.4221,2.4222,2.4222,0,0,2.4068,2.4092,2.4088,2.4093,2.4108,2.4106,2.4099,2.4103,2.4101,2.4107,2.4101,2.4099,2.4114,2.4116,2.4131,2.4122,2.4091,2.4139,2.414,2.4129,2.4065,2.4052,2.4046,2.4103,2.4102,2.4101,2.4064,0,2.403,2.4019,2.404,2.4024,2.4022,2.4049,2.4042,2.405,2.4061,2.406,2.4072,2.407,2.409,2.4092,2.4085,2.4097,2.4079,2.41,2.4096,2.4095,2.4092,2.404,2.4026,2.399,2.4059,2.4059,2.4058,0,2.3983,2.3989,2.3973,2.399,2.399,2.3983,2.3989,2.3988,2.3998,2.4006,2.401,2.4027,2.402,2.4042,2.4032,2.4046,2.4046,2.4052,2.4051,2.405,2.4074,2.4036,2.3979,2.3973,2.4051,2.4051,2.4052,0,2.3935,2.3939,2.393,2.3934,2.3953,2.3948,2.3956,2.3967,2.3968,2.3973,2.3974,2.3977,2.3978,2.398,2.3997,2.4012,2.3985,2.4009,2.3991,2.3991,2.3983,2.3983,2.3924,2.3985,2.3985,2.3985,2.3985,0,2.389,2.3879,2.3909,2.3903,2.3892,2.3916,2.3903,2.3914,2.3923,2.392,2.3943,2.3939,2.3963,2.3961,2.3975,2.3964,2.3965,2.3971,2.3974,2.3968,2.3967,2.3967,2.397,2.3984,2.3984,2.3984,2.3985,0,2.3833,2.3853,2.3846,2.3865,2.387,2.3861,2.3877,2.3872,2.3886,2.3881,2.3881,2.3901,2.39,2.3918,2.3921,2.393,2.3913,2.3922,2.391,2.3912,2.3893,2.3894,2.3831,2.3824,2.389,2.389,2.3889,0,2.3802,2.3795,2.3815,2.3814,2.3821,2.3821,2.3823,2.3846,2.3846,2.3858,2.3851,2.3853,2.3855,2.3852,2.3867,2.3869,2.3877,2.3854,2.3877,2.3871,2.3875,2.3875,2.3874,2.3849,2.3848,2.3847,2.3847,0,2.3745,2.3756,2.3758,2.3764,2.3766,2.3772,2.3778,2.3777,2.3802,2.3801,2.3802,2.3804,2.3807,2.3808,2.3813,2.382,2.3837,2.384,2.3836,2.3829,2.3822,2.3825,2.3896,2.3841,2.3842,2.3842,2.3842,2.3843,2.37,2.3695,2.3708,2.371,2.3718,2.3724,2.3721,2.3734,2.3735,2.3741,2.3754,2.3752,2.3762,2.3771,2.3777,2.3775,2.3785,2.378,2.3778,2.3776,2.3772,2.3824,2.3776,2.3776,2.3776,2.3776,2.3776,0,2.3643,2.3654,2.3655,2.3665,2.3666,2.3685,2.3694,2.3693,2.3691,2.37,2.3703,2.3703,2.3704,2.3719,2.3722,2.3717,2.3725,2.3717,2.3717,2.3718,2.3763,2.3765,2.3711,2.3711,2.3711,2.3711,2.3711,2.3711,2.3614,2.3606,2.3618,2.3614,2.3625,2.3624,2.3627,2.3633,2.364,2.3639,2.3641,2.3652,2.3663,2.3667,2.3668,2.3673,2.3672,2.3661,2.3668,2.3709,2.3715,2.3721,2.3724,2.3661,2.3661,2.3623,2.3623,2.3623]}]]